BREEZE-M DEB, 38610

Orbit data source: Space-Track

BREEZE-M DEB, 38610 is space debris in HEO originally from a launch on Fri, 14 Mar 2008 UTC launched from the Tyuratam Missile And Space Complex (TTMTR). Debris objects in space refer to the collection of defunct objects orbiting the Earth. Examples of debris include non-operational satellites, rocket bodies, and fragments generated from explosions, collisions, or faulty payload assembly.

Loading next visibility...
Identifier
38610, 2008-011BH
Orbit
HEO
Country
Flag of CISCIS
Related business
Manufacturer
Unknown
Mission
Spacecraft
Bus & Motor
Unknown
Mass
Unknown
Launch date (UTC)
2008-03-14 (18 years ago)
Launch vehicle
Unknown
Launch site
Tyuratam Missile And Space Complex (TTMTR)
Object type
Payload
Rocket body
Debris
Shape & HBR
Unknown shape, 0.2 m
Radar Cross Section
Medium (>0.1 m² and <1 m²)

Expand to show TLE details & history
Last TLE update: 4 days ago

TLE from 4 days ago
0 BREEZE-M DEB
1 38610U 08011BH  26170.04118790 -.00000105  00000-0  00000-0 0  9991
2 38610  49.1908  54.2783 6365636 182.3043 172.0758  3.05979113171968
Epoch: 2026-06-19T00:59Z
TLE epoch observation values (Epoch: 2026-06-19T00:59:18.634Z)
Latitude
Longitude
132.18491°
Altitude
26,375.935 km
Speed
2.11 km/s
True Right ascension
03h 37m 09s
True Declination
0° 00' 00"
Sunlit
Object was in daylight at epoch
Visualization orbit readout
Latitude
Unknown
Longitude
Unknown
Altitude
Unknown
Speed
Unknown
Apparent Right ascension
Unknown
Apparent Declination
Unknown
Sunlit
N/A
Visualization observer readout
Local Sidereal Time
01:45:26
Azimuth
Unknown
Elevation
Unknown
Doppler factor
Unknown
Orbital elements
Apogee altitude
26,422.963 km
Perigee altitude
906.098 km
Semi-major axis
20,042.668 km
Eccentricity
0.63656
Inclination
49.1908°
RAAN
54.2783°
Arg. of periapsis
182.3043°
True anomaly
177.71612°
Mean anomaly
172.0758°
Eccentric anomaly
175.15578°
Mean motion
0.76491 °/min
Orbital period
470.64 mins
BSTAR
0
Loading maneuver chart data...
Computing Atmospheric mass density...
Loading historical data...
Loading historical data...
Loading historical data...
Loading historical data...
Loading historical data...
Loading historical data...
Loading historical data...

Documentation

Showing up to 5 results
|